User: anonymous   Login
Location: *
(49.7115°N, 15.0136°E)
Time: 19:26:38
(UTC+00:00)
Language:

STARLINK-64 - Orbit

View from above orbital plane
View from above orbital plane
View from above satellite
View from above satellite

Ground track
Ground track

The orbit data is extracted from the following two-line orbital elements,

1 44275U 19029AS  21141.51229603  .15536320  12295-4  16625-2 0  9990
2 44275  52.9765   6.3365 0005976 281.9226  81.9336 16.36668510111766
Epoch (UTC): 21 May 2021 12:17:42
Eccentricity: 0.0005976
inclination: 52.9765°
perigee height: 171 km
apogee height: 178 km
right ascension of ascending node: 6.3365°
argument of perigee: 281.9226°
revolutions per day: 16.36668510
mean anomaly at epoch: 81.9336°
orbit number at epoch: 11176

The dashed part of the orbit path shows where the satellite is in the earth's shadow,  

DLR